Regional Weather Roundup
Issued by NWS

Home | Current Version | Previous Version | Graphics & Text | Print | Product List | Glossary On
Versions: 1 2 3 4 5 6 7 8 9 10 11 12 13 14 15 16 17 18 19 20 21 22 23 24 25 26 27 28
000
ASUS45 KSLC 160610
RWRUT

UTAH REGIONAL WEATHER ROUNDUP
NATIONAL WEATHER SERVICE SALT LAKE CITY UT
1100 PM MST MON JAN 15 2018

UTZ001>011-023>025-160700-

NORTHERN UTAH

CITY           SKY/WX    TMP DP  RH WIND       PRES   REMARKS
BRIGHAM CITY   CLEAR     41  22  47 E8G16     30.34S
HILL AFB       PTCLDY    38  22  52 E24G30    30.31R WCI  26
LOGAN          CLEAR     34  26  72 VRB6      30.36R WCI  29
OGDEN          PTCLDY    33  26  75 W6        30.31R WCI  28
SALT LAKE CITY PTCLDY    35  30  82 CALM      30.32S
TOOELE VALLEY  PTCLDY    30  28  93 SW8       30.32F WCI  23
WENDOVER       MOCLDY    33  26  75 CALM      30.32R
HEBER CITY       N/A     28  21  74 SE5       30.36R WCI  23
WEST JORDAN    CLEAR     30  27  90 CALM      30.33S

$$

UTZ011>015-024>027-160700-

CENTRAL/NORTHEAST UTAH

CITY           SKY/WX    TMP DP  RH WIND       PRES   REMARKS
PROVO AIRPORT  CLEAR     27  25  92 CALM      30.34S
MOAB/CANYONLAN PTCLDY    37  20  50 SE6       30.34R WCI  32
DELTA          MOCLDY    32  28  86 E7        30.30S WCI  26
PRICE          PTCLDY    33  21  61 N12G21    30.36R WCI  24
ROOSEVELT      CLOUDY    34  16  47 SE6       30.48R WCI  29
VERNAL         PTCLDY    27  12  53 NE9       30.45R WCI  18

$$

UTZ013>016-019>022-027-160700-

SOUTHERN UTAH

CITY           SKY/WX    TMP DP  RH WIND       PRES   REMARKS
BRYCE CANYON   CLEAR     24  21  88 CALM      30.33R
CEDAR CITY     PTCLDY    30  27  88 CALM      30.29S
MILFORD        PTCLDY    28  25  88 CALM      30.30R
ST GEORGE      CLEAR     51  33  50 N10       30.22S
HANKSVILLE     MOCLDY    32  23  69 N9        30.38S WCI  24
KANAB          CLEAR     39  27  60 N9        30.32R WCI  33
BLANDING         N/A     30  21  70 NW7       30.34S WCI  23

$$

REGIONAL REPORTS     COLORADO/ARIZONA

CITY           SKY/WX    TMP DP  RH WIND       PRES   REMARKS
CRAIG, CO      CLEAR      6  -1  73 E6        30.46R WCI  -4
GRAND JUNCTION CLEAR     29  19  66 NW5       30.38R WCI  24
RIFLE, CO      CLEAR     25  19  78 CALM      30.41R
MONTROSE, CO   CLEAR     24  18  77 S9        30.38R WCI  14
CORTEZ, CO     PTCLDY    34  21  59 VRB5      30.27R WCI  30
COLORADO CITY    N/A     32  30  93 CALM      30.29R
PAGE, AZ       CLEAR     42  31  64 CALM      30.28R HAZE
GRAND CANYON   CLEAR     25  21  85 CALM      30.29R
KINGMAN, AZ    PTCLDY    47  32  56 E7        30.18R
FLAGSTAFF, AZ  PTCLDY    26  20  77 CALM      30.28R

$$

REGIONAL REPORTS    NEVADA/IDAHO/WYOMING

CITY           SKY/WX    TMP DP  RH WIND       PRES   REMARKS
LAS VEGAS, NV  CLOUDY    56  42  59 SW5       30.14S
ELY, NY        PTCLDY    25  19  78 S12       30.28F WCI  14
ELKO, NV       PTCLDY    31  27  85 VRB3      30.23S
POCATELLO, ID  CLEAR     27  24  89 CALM      30.33F
BURLEY, ID     CLEAR     35  26  69 NE21G26   30.26F WCI  24
FORT BRIDGER,    N/A     17  13  83 E8        30.42S WCI   7
EVANSTON, WY   CLEAR     20  16  84 E10       30.38R WCI   9
ROCK SPRINGS,  PTCLDY    13   5  70 NE3       30.44R

$$




USA.gov is the U.S. government's official web portal to all federal, state and local government web resources and services.